contact:dominique.lefevre@mio.osupytheas.fr, maurice.libes@osupytheas.fr, didier.mallarino@osupytheas.fr
Project:EMSO http://www.emso-fr.org/EMSO-France
Depth: 2436.0 m
Title:EMSO Ligure Ouest : Data MII capteur CSTAR
DateTime,Latitude,Longitude,Instrument_Serial,Reference_Counts,Signal_Counts,Corrected_Signal_raw_counts,Calculated_Beam_c_inverse_meters,Internal_thermistor_counts
DateTime,Latitude,Longitude,Instrument_Serial,Reference_Counts,Signal_Counts,Corrected_Signal_raw_counts,Calculated_Beam_c_inverse_meters,Internal_thermistor_counts
2020-07-13T00:00:22,42.805,6.029,CST-1368DR,6084,8522,15124,0.128,551
2020-07-13T00:03:24,42.805,6.029,CST-1368DR,6084,8520,15122,0.129,551
2020-07-13T00:06:25,42.805,6.029,CST-1368DR,6084,8521,15122,0.129,551
2020-07-13T00:09:27,42.805,6.029,CST-1368DR,6084,8522,15124,0.128,551
2020-07-13T00:12:29,42.805,6.029,CST-1368DR,6084,8521,15122,0.129,551
2020-07-13T00:15:30,42.805,6.029,CST-1368DR,6084,8522,15124,0.128,551
2020-07-13T00:18:32,42.805,6.029,CST-1368DR,6084,8522,15124,0.128,551
2020-07-13T00:21:34,42.805,6.029,CST-1368DR,6084,8521,15123,0.128,551
2020-07-13T00:24:35,42.805,6.029,CST-1368DR,6084,8521,15123,0.128,551
2020-07-13T00:27:37,42.805,6.029,CST-1368DR,6084,8521,15123,0.128,551
2020-07-13T00:30:39,42.805,6.029,CST-1368DR,6084,8521,15123,0.128,551
2020-07-13T00:33:40,42.805,6.029,CST-1368DR,6084,8522,15124,0.128,551
2020-07-13T00:36:42,42.805,6.029,CST-1368DR,6084,8522,15124,0.128,551
2020-07-13T00:39:44,42.805,6.029,CST-1368DR,6084,8520,15122,0.129,551
2020-07-13T00:42:45,42.805,6.029,CST-1368DR,6084,8521,15123,0.128,551
2020-07-13T00:45:47,42.805,6.029,CST-1368DR,6084,8522,15124,0.128,551
2020-07-13T00:48:49,42.805,6.029,CST-1368DR,6084,8521,15123,0.128,551
2020-07-13T00:51:50,42.805,6.029,CST-1368DR,6084,8521,15122,0.129,551
2020-07-13T00:54:52,42.805,6.029,CST-1368DR,6084,8522,15124,0.128,551
2020-07-13T00:57:54,42.805,6.029,CST-1368DR,6084,8522,15125,0.128,551
2020-07-13T01:00:56,42.805,6.029,CST-1368DR,6084,8521,15123,0.128,551
2020-07-13T01:03:57,42.805,6.029,CST-1368DR,6084,8522,15124,0.128,551
2020-07-13T01:06:59,42.805,6.029,CST-1368DR,6084,8522,15124,0.128,551
2020-07-13T01:10:01,42.805,6.029,CST-1368DR,6084,8521,15123,0.128,551
2020-07-13T01:13:02,42.805,6.029,CST-1368DR,6084,8521,15122,0.129,551
2020-07-13T01:16:04,42.805,6.029,CST-1368DR,6084,8520,15121,0.129,551
2020-07-13T01:19:06,42.805,6.029,CST-1368DR,6084,8521,15123,0.128,551
2020-07-13T01:22:08,42.805,6.029,CST-1368DR,6084,8520,15122,0.129,551
2020-07-13T01:25:09,42.805,6.029,CST-1368DR,6084,8521,15123,0.128,551
2020-07-13T01:28:11,42.805,6.029,CST-1368DR,6084,8520,15121,0.129,551
2020-07-13T01:31:13,42.805,6.029,CST-1368DR,6084,8521,15123,0.128,551
2020-07-13T01:34:14,42.805,6.029,CST-1368DR,6084,8521,15123,0.128,551
2020-07-13T01:37:16,42.805,6.029,CST-1368DR,6084,8521,15123,0.128,551
2020-07-13T01:40:18,42.805,6.029,CST-1368DR,6084,8520,15122,0.129,551
2020-07-13T01:43:19,42.805,6.029,CST-1368DR,6084,8521,15123,0.128,551
2020-07-13T01:46:21,42.805,6.029,CST-1368DR,6084,8521,15122,0.129,551
2020-07-13T01:49:23,42.805,6.029,CST-1368DR,6084,8521,15122,0.129,551
2020-07-13T01:52:24,42.805,6.029,CST-1368DR,6084,8521,15123,0.128,551
2020-07-13T01:55:26,42.805,6.029,CST-1368DR,6084,8521,15123,0.128,551
2020-07-13T01:58:28,42.805,6.029,CST-1368DR,6083,8520,15124,0.128,551
2020-07-13T02:01:30,42.805,6.029,CST-1368DR,6083,8522,15126,0.128,551
2020-07-13T02:04:31,42.805,6.029,CST-1368DR,6084,8520,15122,0.129,551
2020-07-13T02:07:33,42.805,6.029,CST-1368DR,6084,8521,15123,0.128,551
2020-07-13T02:10:35,42.805,6.029,CST-1368DR,6084,8520,15122,0.129,551
2020-07-13T02:13:37,42.805,6.029,CST-1368DR,6084,8519,15119,0.129,551
2020-07-13T02:16:38,42.805,6.029,CST-1368DR,6084,8521,15123,0.128,551
2020-07-13T02:19:40,42.805,6.029,CST-1368DR,6084,8521,15123,0.128,551
2020-07-13T02:22:42,42.805,6.029,CST-1368DR,6084,8521,15122,0.129,551
2020-07-13T02:25:43,42.805,6.029,CST-1368DR,6083,8520,15123,0.128,551
2020-07-13T02:28:45,42.805,6.029,CST-1368DR,6084,8520,15121,0.129,551
2020-07-13T02:31:47,42.805,6.029,CST-1368DR,6083,8520,15124,0.128,551
2020-07-13T02:34:49,42.805,6.029,CST-1368DR,6083,8520,15124,0.128,551
2020-07-13T02:37:50,42.805,6.029,CST-1368DR,6083,8521,15125,0.128,551
2020-07-13T02:40:52,42.805,6.029,CST-1368DR,6083,8520,15123,0.128,551
2020-07-13T02:43:54,42.805,6.029,CST-1368DR,6083,8520,15123,0.128,551
2020-07-13T02:46:55,42.805,6.029,CST-1368DR,6083,8521,15125,0.128,551
2020-07-13T02:49:57,42.805,6.029,CST-1368DR,6083,8521,15125,0.128,551
2020-07-13T02:52:59,42.805,6.029,CST-1368DR,6083,8521,15125,0.128,551
2020-07-13T02:56:00,42.805,6.029,CST-1368DR,6083,8520,15124,0.128,551
2020-07-13T02:59:02,42.805,6.029,CST-1368DR,6083,8521,15125,0.128,551
2020-07-13T03:02:04,42.805,6.029,CST-1368DR,6083,8521,15125,0.128,551
2020-07-13T03:05:05,42.805,6.029,CST-1368DR,6083,8521,15124,0.128,551
2020-07-13T03:08:07,42.805,6.029,CST-1368DR,6083,8521,15125,0.128,551
2020-07-13T03:11:09,42.805,6.029,CST-1368DR,6083,8519,15122,0.129,550
2020-07-13T03:14:11,42.805,6.029,CST-1368DR,6083,8521,15124,0.128,551
2020-07-13T03:17:12,42.805,6.029,CST-1368DR,6083,8520,15124,0.128,551
2020-07-13T03:20:14,42.805,6.029,CST-1368DR,6083,8520,15124,0.128,551
2020-07-13T03:23:16,42.805,6.029,CST-1368DR,6083,8520,15124,0.128,551
2020-07-13T03:26:17,42.805,6.029,CST-1368DR,6083,8520,15124,0.128,551
2020-07-13T03:29:19,42.805,6.029,CST-1368DR,6083,8520,15123,0.128,551
2020-07-13T03:32:21,42.805,6.029,CST-1368DR,6083,8520,15124,0.128,551
2020-07-13T03:35:22,42.805,6.029,CST-1368DR,6083,8520,15123,0.128,551
2020-07-13T03:38:24,42.805,6.029,CST-1368DR,6083,8519,15122,0.129,551
2020-07-13T03:41:26,42.805,6.029,CST-1368DR,6083,8520,15123,0.128,551
2020-07-13T03:44:27,42.805,6.029,CST-1368DR,6083,8520,15123,0.128,551
2020-07-13T03:47:29,42.805,6.029,CST-1368DR,6083,8520,15124,0.128,551
2020-07-13T03:50:31,42.805,6.029,CST-1368DR,6083,8521,15124,0.128,551
2020-07-13T03:53:32,42.805,6.029,CST-1368DR,6083,8521,15124,0.128,551
2020-07-13T03:56:34,42.805,6.029,CST-1368DR,6083,8520,15124,0.128,551
2020-07-13T03:59:36,42.805,6.029,CST-1368DR,6083,8520,15124,0.128,551
2020-07-13T04:02:37,42.805,6.029,CST-1368DR,6083,8519,15122,0.129,551
2020-07-13T04:05:39,42.805,6.029,CST-1368DR,6083,8520,15123,0.128,551
2020-07-13T04:08:41,42.805,6.029,CST-1368DR,6083,8520,15124,0.128,551
2020-07-13T04:11:42,42.805,6.029,CST-1368DR,6083,8520,15124,0.128,551
2020-07-13T04:14:44,42.805,6.029,CST-1368DR,6083,8520,15124,0.128,551
2020-07-13T04:17:46,42.805,6.029,CST-1368DR,6083,8521,15124,0.128,551
2020-07-13T04:20:48,42.805,6.029,CST-1368DR,6083,8520,15124,0.128,551
2020-07-13T04:23:49,42.805,6.029,CST-1368DR,6083,8520,15123,0.128,551
2020-07-13T04:26:51,42.805,6.029,CST-1368DR,6083,8520,15124,0.128,550
2020-07-13T04:29:53,42.805,6.029,CST-1368DR,6083,8520,15123,0.128,551
2020-07-13T04:32:54,42.805,6.029,CST-1368DR,6083,8520,15123,0.128,551
2020-07-13T04:35:56,42.805,6.029,CST-1368DR,6083,8520,15123,0.128,551
2020-07-13T04:38:58,42.805,6.029,CST-1368DR,6083,8520,15123,0.128,551
2020-07-13T04:41:59,42.805,6.029,CST-1368DR,6083,8520,15124,0.128,551
2020-07-13T04:45:01,42.805,6.029,CST-1368DR,6083,8520,15124,0.128,551
2020-07-13T04:48:03,42.805,6.029,CST-1368DR,6083,8521,15124,0.128,551
2020-07-13T04:51:04,42.805,6.029,CST-1368DR,6083,8520,15124,0.128,551
2020-07-13T04:54:06,42.805,6.029,CST-1368DR,6083,8520,15124,0.128,551
2020-07-13T04:57:08,42.805,6.029,CST-1368DR,6083,8520,15123,0.128,551
2020-07-13T05:00:09,42.805,6.029,CST-1368DR,6083,8520,15123,0.128,551
2020-07-13T05:03:11,42.805,6.029,CST-1368DR,6083,8519,15122,0.129,551
2020-07-13T05:06:13,42.805,6.029,CST-1368DR,6083,8520,15123,0.128,551
2020-07-13T05:09:14,42.805,6.029,CST-1368DR,6083,8520,15123,0.128,551
2020-07-13T05:12:16,42.805,6.029,CST-1368DR,6083,8519,15122,0.129,551
2020-07-13T05:15:18,42.805,6.029,CST-1368DR,6083,8520,15124,0.128,551
2020-07-13T05:18:19,42.805,6.029,CST-1368DR,6083,8520,15123,0.128,551
2020-07-13T05:21:21,42.805,6.029,CST-1368DR,6083,8519,15122,0.129,551
2020-07-13T05:24:23,42.805,6.029,CST-1368DR,6083,8519,15122,0.129,551
2020-07-13T05:27:25,42.805,6.029,CST-1368DR,6083,8519,15122,0.129,551
2020-07-13T05:30:26,42.805,6.029,CST-1368DR,6083,8519,15122,0.129,551
2020-07-13T05:33:28,42.805,6.029,CST-1368DR,6083,8519,15122,0.129,551
2020-07-13T05:36:30,42.805,6.029,CST-1368DR,6083,8519,15121,0.129,551
2020-07-13T05:39:31,42.805,6.029,CST-1368DR,6083,8520,15123,0.128,551
2020-07-13T05:42:33,42.805,6.029,CST-1368DR,6083,8520,15124,0.128,551
2020-07-13T05:45:35,42.805,6.029,CST-1368DR,6083,8519,15121,0.129,551
2020-07-13T05:48:36,42.805,6.029,CST-1368DR,6083,8519,15122,0.129,551
2020-07-13T05:51:38,42.805,6.029,CST-1368DR,6083,8520,15123,0.128,551
2020-07-13T05:54:40,42.805,6.029,CST-1368DR,6083,8520,15123,0.128,551
2020-07-13T05:57:41,42.805,6.029,CST-1368DR,6083,8518,15120,0.129,551
2020-07-13T06:00:43,42.805,6.029,CST-1368DR,6083,8519,15122,0.129,551
2020-07-13T06:03:45,42.805,6.029,CST-1368DR,6083,8519,15122,0.129,551
2020-07-13T06:06:47,42.805,6.029,CST-1368DR,6083,8520,15123,0.128,551
2020-07-13T06:09:48,42.805,6.029,CST-1368DR,6083,8519,15121,0.129,551
2020-07-13T06:12:50,42.805,6.029,CST-1368DR,6083,8519,15122,0.129,551
2020-07-13T06:15:52,42.805,6.029,CST-1368DR,6083,8520,15123,0.128,551
2020-07-13T06:18:53,42.805,6.029,CST-1368DR,6083,8519,15121,0.129,551
2020-07-13T06:21:55,42.805,6.029,CST-1368DR,6083,8519,15121,0.129,551
2020-07-13T06:24:57,42.805,6.029,CST-1368DR,6083,8519,15121,0.129,551
2020-07-13T06:27:59,42.805,6.029,CST-1368DR,6083,8519,15121,0.129,551
2020-07-13T06:31:00,42.805,6.029,CST-1368DR,6083,8520,15123,0.128,551
2020-07-13T06:34:02,42.805,6.029,CST-1368DR,6083,8519,15122,0.129,551
2020-07-13T06:37:04,42.805,6.029,CST-1368DR,6083,8519,15122,0.129,551
2020-07-13T06:40:05,42.805,6.029,CST-1368DR,6083,8519,15121,0.129,551
2020-07-13T06:43:07,42.805,6.029,CST-1368DR,6083,8519,15121,0.129,551
2020-07-13T06:46:09,42.805,6.029,CST-1368DR,6083,8519,15122,0.129,551
2020-07-13T06:49:11,42.805,6.029,CST-1368DR,6083,8519,15121,0.129,551
2020-07-13T06:52:12,42.805,6.029,CST-1368DR,6083,8519,15121,0.129,551
2020-07-13T06:55:14,42.805,6.029,CST-1368DR,6083,8518,15120,0.129,551
2020-07-13T06:58:16,42.805,6.029,CST-1368DR,6083,8520,15123,0.128,551
2020-07-13T07:01:17,42.805,6.029,CST-1368DR,6083,8519,15122,0.129,551
2020-07-13T07:04:19,42.805,6.029,CST-1368DR,6083,8519,15121,0.129,551
2020-07-13T07:07:21,42.805,6.029,CST-1368DR,6083,8519,15121,0.129,551
2020-07-13T07:10:22,42.805,6.029,CST-1368DR,6083,8519,15121,0.129,551
2020-07-13T07:13:24,42.805,6.029,CST-1368DR,6083,8518,15120,0.129,551
2020-07-13T07:16:26,42.805,6.029,CST-1368DR,6083,8519,15121,0.129,551
2020-07-13T07:19:27,42.805,6.029,CST-1368DR,6083,8516,15116,0.130,551
2020-07-13T07:22:29,42.805,6.029,CST-1368DR,6083,8519,15122,0.129,551
2020-07-13T07:25:31,42.805,6.029,CST-1368DR,6083,8515,15115,0.130,551
2020-07-13T07:28:33,42.805,6.029,CST-1368DR,6083,8518,15120,0.129,551
2020-07-13T07:31:34,42.805,6.029,CST-1368DR,6082,8518,15122,0.129,551
2020-07-13T07:34:36,42.805,6.029,CST-1368DR,6083,8519,15122,0.129,551
2020-07-13T07:37:38,42.805,6.029,CST-1368DR,6083,8519,15121,0.129,551
2020-07-13T07:40:39,42.805,6.029,CST-1368DR,6083,8518,15120,0.129,551
2020-07-13T07:43:41,42.805,6.029,CST-1368DR,6082,8519,15123,0.128,551
2020-07-13T07:46:43,42.805,6.029,CST-1368DR,6083,8519,15121,0.129,551
2020-07-13T07:49:44,42.805,6.029,CST-1368DR,6082,8518,15121,0.129,551
2020-07-13T07:52:46,42.805,6.029,CST-1368DR,6082,8519,15124,0.128,551
2020-07-13T07:55:48,42.805,6.029,CST-1368DR,6082,8518,15121,0.129,551
2020-07-13T07:58:50,42.805,6.029,CST-1368DR,6082,8519,15124,0.128,551
2020-07-13T08:01:51,42.805,6.029,CST-1368DR,6082,8519,15124,0.128,551
2020-07-13T08:04:53,42.805,6.029,CST-1368DR,6082,8519,15124,0.128,551
2020-07-13T08:07:55,42.805,6.029,CST-1368DR,6082,8519,15124,0.128,551
2020-07-13T08:10:56,42.805,6.029,CST-1368DR,6082,8519,15123,0.128,550
2020-07-13T08:13:58,42.805,6.029,CST-1368DR,6082,8519,15123,0.128,551
2020-07-13T08:17:00,42.805,6.029,CST-1368DR,6082,8518,15123,0.128,550
2020-07-13T08:20:01,42.805,6.029,CST-1368DR,6082,8519,15123,0.128,551
2020-07-13T08:23:03,42.805,6.029,CST-1368DR,6082,8518,15121,0.129,551
2020-07-13T08:26:05,42.805,6.029,CST-1368DR,6082,8518,15121,0.129,551
2020-07-13T08:29:06,42.805,6.029,CST-1368DR,6082,8517,15121,0.129,551
2020-07-13T08:32:08,42.805,6.029,CST-1368DR,6082,8514,15115,0.130,551
2020-07-13T08:35:10,42.805,6.029,CST-1368DR,6082,8519,15123,0.128,551
2020-07-13T08:38:12,42.805,6.029,CST-1368DR,6082,8518,15121,0.129,551
2020-07-13T08:41:14,42.805,6.029,CST-1368DR,6082,8518,15123,0.128,551
2020-07-13T08:44:15,42.805,6.029,CST-1368DR,6082,8517,15121,0.129,551
2020-07-13T08:47:17,42.805,6.029,CST-1368DR,6082,8518,15122,0.129,551
2020-07-13T08:50:19,42.805,6.029,CST-1368DR,6082,8518,15122,0.129,551
2020-07-13T08:53:20,42.805,6.029,CST-1368DR,6082,8518,15122,0.129,551
2020-07-13T08:56:22,42.805,6.029,CST-1368DR,6082,8517,15120,0.129,551
2020-07-13T08:59:24,42.805,6.029,CST-1368DR,6082,8517,15121,0.129,551
2020-07-13T09:02:25,42.805,6.029,CST-1368DR,6082,8517,15120,0.129,551
2020-07-13T09:05:27,42.805,6.029,CST-1368DR,6082,8519,15123,0.128,551
2020-07-13T09:08:29,42.805,6.029,CST-1368DR,6082,8518,15121,0.129,551
2020-07-13T09:11:30,42.805,6.029,CST-1368DR,6082,8517,15121,0.129,551
2020-07-13T09:14:32,42.805,6.029,CST-1368DR,6082,8517,15121,0.129,551
2020-07-13T09:17:34,42.805,6.029,CST-1368DR,6082,8518,15121,0.129,551
2020-07-13T09:20:35,42.805,6.029,CST-1368DR,6082,8518,15121,0.129,551
2020-07-13T09:23:37,42.805,6.029,CST-1368DR,6082,8516,15119,0.129,551
2020-07-13T09:26:39,42.805,6.029,CST-1368DR,6082,8517,15121,0.129,551
2020-07-13T09:29:41,42.805,6.029,CST-1368DR,6082,8517,15121,0.129,551
2020-07-13T09:32:42,42.805,6.029,CST-1368DR,6082,8517,15121,0.129,551
2020-07-13T09:35:44,42.805,6.029,CST-1368DR,6082,8518,15122,0.129,551
2020-07-13T09:38:46,42.805,6.029,CST-1368DR,6082,8518,15121,0.129,551
2020-07-13T09:41:48,42.805,6.029,CST-1368DR,6082,8517,15120,0.129,551
2020-07-13T09:44:49,42.805,6.029,CST-1368DR,6082,8518,15123,0.128,551
2020-07-13T09:47:51,42.805,6.029,CST-1368DR,6082,8518,15122,0.129,550
2020-07-13T09:50:53,42.805,6.029,CST-1368DR,6082,8517,15120,0.129,551
2020-07-13T09:53:54,42.805,6.029,CST-1368DR,6082,8518,15121,0.129,551
2020-07-13T09:56:56,42.805,6.029,CST-1368DR,6082,8517,15121,0.129,551
2020-07-13T09:59:58,42.805,6.029,CST-1368DR,6082,8518,15122,0.129,551
2020-07-13T10:02:59,42.805,6.029,CST-1368DR,6082,8517,15121,0.129,551
2020-07-13T10:06:01,42.805,6.029,CST-1368DR,6082,8517,15121,0.129,551
2020-07-13T10:09:03,42.805,6.029,CST-1368DR,6082,8518,15122,0.129,551
2020-07-13T10:12:04,42.805,6.029,CST-1368DR,6082,8518,15121,0.129,551
2020-07-13T10:15:06,42.805,6.029,CST-1368DR,6082,8518,15123,0.128,551
2020-07-13T10:18:08,42.805,6.029,CST-1368DR,6082,8514,15115,0.130,551
2020-07-13T10:21:09,42.805,6.029,CST-1368DR,6082,8516,15118,0.130,551
2020-07-13T10:24:11,42.805,6.029,CST-1368DR,6082,8519,15123,0.128,551
2020-07-13T10:27:13,42.805,6.029,CST-1368DR,6082,8518,15122,0.129,551
2020-07-13T10:30:15,42.805,6.029,CST-1368DR,6082,8519,15123,0.128,551
2020-07-13T10:33:17,42.805,6.029,CST-1368DR,6082,8518,15121,0.129,551
2020-07-13T10:36:18,42.805,6.029,CST-1368DR,6082,8517,15121,0.129,551
2020-07-13T10:39:20,42.805,6.029,CST-1368DR,6082,8518,15121,0.129,551
2020-07-13T10:42:22,42.805,6.029,CST-1368DR,6082,8517,15121,0.129,551
2020-07-13T10:45:23,42.805,6.029,CST-1368DR,6082,8517,15120,0.129,551
2020-07-13T10:48:25,42.805,6.029,CST-1368DR,6082,8517,15121,0.129,551
2020-07-13T10:51:27,42.805,6.029,CST-1368DR,6082,8517,15121,0.129,551
2020-07-13T10:54:28,42.805,6.029,CST-1368DR,6082,8519,15124,0.128,551
2020-07-13T10:57:30,42.805,6.029,CST-1368DR,6082,8517,15120,0.129,551
2020-07-13T11:00:32,42.805,6.029,CST-1368DR,6082,8518,15123,0.128,551
2020-07-13T11:03:33,42.805,6.029,CST-1368DR,6082,8517,15121,0.129,551
2020-07-13T11:06:35,42.805,6.029,CST-1368DR,6082,8517,15120,0.129,551
2020-07-13T11:09:37,42.805,6.029,CST-1368DR,6082,8518,15121,0.129,551
2020-07-13T11:12:38,42.805,6.029,CST-1368DR,6082,8518,15122,0.129,551
2020-07-13T11:15:40,42.805,6.029,CST-1368DR,6082,8517,15121,0.129,551
2020-07-13T11:18:42,42.805,6.029,CST-1368DR,6082,8518,15123,0.128,551
2020-07-13T11:21:44,42.805,6.029,CST-1368DR,6082,8518,15121,0.129,551
2020-07-13T11:24:45,42.805,6.029,CST-1368DR,6082,8518,15122,0.129,551
2020-07-13T11:27:47,42.805,6.029,CST-1368DR,6082,8517,15121,0.129,551
2020-07-13T11:30:49,42.805,6.029,CST-1368DR,6082,8516,15119,0.129,551
2020-07-13T11:33:50,42.805,6.029,CST-1368DR,6082,8517,15121,0.129,551
2020-07-13T11:36:52,42.805,6.029,CST-1368DR,6082,8517,15120,0.129,551
2020-07-13T11:39:54,42.805,6.029,CST-1368DR,6082,8518,15122,0.129,551
2020-07-13T11:42:55,42.805,6.029,CST-1368DR,6082,8517,15121,0.129,551
2020-07-13T11:45:57,42.805,6.029,CST-1368DR,6082,8517,15120,0.129,551
2020-07-13T11:48:59,42.805,6.029,CST-1368DR,6082,8517,15121,0.129,551
2020-07-13T11:52:00,42.805,6.029,CST-1368DR,6082,8518,15122,0.129,551
2020-07-13T11:55:02,42.805,6.029,CST-1368DR,6082,8518,15123,0.128,551
2020-07-13T11:58:04,42.805,6.029,CST-1368DR,6082,8518,15123,0.128,551
2020-07-13T12:01:05,42.805,6.029,CST-1368DR,6082,8518,15121,0.129,551
2020-07-13T12:04:07,42.805,6.029,CST-1368DR,6082,8518,15121,0.129,551
2020-07-13T12:07:09,42.805,6.029,CST-1368DR,6082,8517,15121,0.129,551
2020-07-13T12:10:11,42.805,6.029,CST-1368DR,6082,8518,15123,0.128,551
2020-07-13T12:13:12,42.805,6.029,CST-1368DR,6082,8518,15123,0.128,551
2020-07-13T12:16:14,42.805,6.029,CST-1368DR,6082,8519,15123,0.128,551
2020-07-13T12:19:16,42.805,6.029,CST-1368DR,6082,8519,15123,0.128,550
2020-07-13T12:22:17,42.805,6.029,CST-1368DR,6082,8517,15121,0.129,551
2020-07-13T12:25:19,42.805,6.029,CST-1368DR,6082,8518,15121,0.129,551
2020-07-13T12:28:21,42.805,6.029,CST-1368DR,6082,8518,15122,0.129,551
2020-07-13T12:31:22,42.805,6.029,CST-1368DR,6082,8518,15122,0.129,551
2020-07-13T12:34:24,42.805,6.029,CST-1368DR,6082,8519,15123,0.128,551
2020-07-13T12:37:26,42.805,6.029,CST-1368DR,6082,8517,15121,0.129,551
2020-07-13T12:40:28,42.805,6.029,CST-1368DR,6082,8517,15121,0.129,551
2020-07-13T12:43:29,42.805,6.029,CST-1368DR,6082,8517,15121,0.129,551
2020-07-13T12:46:31,42.805,6.029,CST-1368DR,6082,8518,15121,0.129,551
2020-07-13T12:49:33,42.805,6.029,CST-1368DR,6082,8516,15118,0.130,551
2020-07-13T12:52:35,42.805,6.029,CST-1368DR,6082,8518,15122,0.129,551
2020-07-13T12:55:36,42.805,6.029,CST-1368DR,6082,8519,15124,0.128,551
2020-07-13T12:58:38,42.805,6.029,CST-1368DR,6082,8519,15123,0.128,551
2020-07-13T13:01:40,42.805,6.029,CST-1368DR,6082,8518,15122,0.129,551
2020-07-13T13:04:41,42.805,6.029,CST-1368DR,6082,8518,15123,0.128,551
2020-07-13T13:07:43,42.805,6.029,CST-1368DR,6082,8517,15120,0.129,551
2020-07-13T13:10:45,42.805,6.029,CST-1368DR,6082,8518,15122,0.129,551
2020-07-13T13:13:47,42.805,6.029,CST-1368DR,6082,8518,15123,0.128,551
2020-07-13T13:16:48,42.805,6.029,CST-1368DR,6082,8518,15122,0.129,551
2020-07-13T13:19:50,42.805,6.029,CST-1368DR,6082,8519,15123,0.128,551
2020-07-13T13:22:52,42.805,6.029,CST-1368DR,6082,8518,15122,0.129,551
2020-07-13T13:25:54,42.805,6.029,CST-1368DR,6082,8517,15121,0.129,551
2020-07-13T13:28:55,42.805,6.029,CST-1368DR,6082,8518,15123,0.128,551
2020-07-13T13:31:57,42.805,6.029,CST-1368DR,6082,8518,15121,0.129,551
2020-07-13T13:34:59,42.805,6.029,CST-1368DR,6082,8517,15121,0.129,551
2020-07-13T13:38:00,42.805,6.029,CST-1368DR,6082,8518,15122,0.129,551
2020-07-13T13:41:02,42.805,6.029,CST-1368DR,6082,8516,15119,0.129,551
2020-07-13T13:44:04,42.805,6.029,CST-1368DR,6082,8517,15120,0.129,551
2020-07-13T13:47:05,42.805,6.029,CST-1368DR,6082,8516,15118,0.130,551
2020-07-13T13:50:07,42.805,6.029,CST-1368DR,6082,8517,15121,0.129,551
2020-07-13T13:53:09,42.805,6.029,CST-1368DR,6082,8517,15120,0.129,551
2020-07-13T13:56:10,42.805,6.029,CST-1368DR,6082,8518,15121,0.129,551
2020-07-13T13:59:12,42.805,6.029,CST-1368DR,6082,8517,15121,0.129,551
2020-07-13T14:02:14,42.805,6.029,CST-1368DR,6082,8518,15122,0.129,551
2020-07-13T14:05:15,42.805,6.029,CST-1368DR,6082,8518,15123,0.128,551
2020-07-13T14:08:17,42.805,6.029,CST-1368DR,6082,8516,15118,0.130,551
2020-07-13T14:11:19,42.805,6.029,CST-1368DR,6082,8518,15121,0.129,551
2020-07-13T14:14:21,42.805,6.029,CST-1368DR,6082,8517,15121,0.129,551
2020-07-13T14:17:22,42.805,6.029,CST-1368DR,6082,8518,15122,0.129,551
2020-07-13T14:20:24,42.805,6.029,CST-1368DR,6082,8517,15120,0.129,551
2020-07-13T14:23:26,42.805,6.029,CST-1368DR,6082,8517,15120,0.129,551
2020-07-13T14:26:27,42.805,6.029,CST-1368DR,6082,8517,15121,0.129,551
2020-07-13T14:29:29,42.805,6.029,CST-1368DR,6082,8517,15120,0.129,551
2020-07-13T14:32:31,42.805,6.029,CST-1368DR,6082,8517,15120,0.129,551
2020-07-13T14:35:32,42.805,6.029,CST-1368DR,6082,8516,15118,0.130,551
2020-07-13T14:38:34,42.805,6.029,CST-1368DR,6082,8517,15121,0.129,551
2020-07-13T14:41:36,42.805,6.029,CST-1368DR,6082,8513,15113,0.131,551
2020-07-13T14:44:38,42.805,6.029,CST-1368DR,6082,8517,15121,0.129,551
2020-07-13T14:47:39,42.805,6.029,CST-1368DR,6082,8516,15119,0.129,551
2020-07-13T14:50:41,42.805,6.029,CST-1368DR,6082,8517,15120,0.129,551
2020-07-13T14:53:43,42.805,6.029,CST-1368DR,6082,8517,15121,0.129,551
2020-07-13T14:56:44,42.805,6.029,CST-1368DR,6082,8518,15121,0.129,551
2020-07-13T14:59:46,42.805,6.029,CST-1368DR,6082,8517,15121,0.129,551
2020-07-13T15:02:48,42.805,6.029,CST-1368DR,6082,8517,15121,0.129,551
2020-07-13T15:05:50,42.805,6.029,CST-1368DR,6082,8518,15122,0.129,551
2020-07-13T15:08:51,42.805,6.029,CST-1368DR,6082,8518,15121,0.129,551
2020-07-13T15:11:53,42.805,6.029,CST-1368DR,6082,8517,15121,0.129,551
2020-07-13T15:14:55,42.805,6.029,CST-1368DR,6081,8517,15122,0.129,550
2020-07-13T15:17:56,42.805,6.029,CST-1368DR,6081,8517,15122,0.129,551
2020-07-13T15:20:58,42.805,6.029,CST-1368DR,6081,8517,15123,0.128,551
2020-07-13T15:24:00,42.805,6.029,CST-1368DR,6081,8517,15122,0.129,551
2020-07-13T15:27:01,42.805,6.029,CST-1368DR,6082,8517,15121,0.129,551
2020-07-13T15:30:03,42.805,6.029,CST-1368DR,6081,8517,15123,0.128,551
2020-07-13T15:33:05,42.805,6.029,CST-1368DR,6082,8517,15121,0.129,551
2020-07-13T15:36:06,42.805,6.029,CST-1368DR,6082,8516,15119,0.129,551
2020-07-13T15:39:08,42.805,6.029,CST-1368DR,6081,8517,15123,0.128,551
2020-07-13T15:42:10,42.805,6.029,CST-1368DR,6081,8517,15122,0.129,551
2020-07-13T15:45:11,42.805,6.029,CST-1368DR,6081,8517,15122,0.129,551
2020-07-13T15:48:13,42.805,6.029,CST-1368DR,6081,8517,15123,0.128,551
2020-07-13T15:51:15,42.805,6.029,CST-1368DR,6081,8517,15123,0.128,551
2020-07-13T15:54:16,42.805,6.029,CST-1368DR,6081,8517,15123,0.128,550
2020-07-13T15:57:18,42.805,6.029,CST-1368DR,6081,8517,15122,0.129,551
2020-07-13T16:00:20,42.805,6.029,CST-1368DR,6081,8516,15122,0.129,551
2020-07-13T16:03:22,42.805,6.029,CST-1368DR,6081,8518,15124,0.128,551
2020-07-13T16:06:23,42.805,6.029,CST-1368DR,6081,8517,15123,0.128,551
2020-07-13T16:09:25,42.805,6.029,CST-1368DR,6081,8517,15123,0.128,551
2020-07-13T16:12:27,42.805,6.029,CST-1368DR,6081,8517,15123,0.128,551
2020-07-13T16:15:28,42.805,6.029,CST-1368DR,6081,8517,15123,0.128,550
2020-07-13T16:18:30,42.805,6.029,CST-1368DR,6081,8517,15123,0.128,550
2020-07-13T16:21:32,42.805,6.029,CST-1368DR,6081,8517,15122,0.129,551
2020-07-13T16:24:33,42.805,6.029,CST-1368DR,6081,8517,15122,0.129,551
2020-07-13T16:27:35,42.805,6.029,CST-1368DR,6081,8518,15124,0.128,551
2020-07-13T16:30:37,42.805,6.029,CST-1368DR,6081,8517,15123,0.128,551
2020-07-13T16:33:39,42.805,6.029,CST-1368DR,6081,8517,15123,0.128,550
2020-07-13T16:36:40,42.805,6.029,CST-1368DR,6081,8517,15122,0.129,551
2020-07-13T16:39:42,42.805,6.029,CST-1368DR,6081,8516,15121,0.129,551
2020-07-13T16:42:44,42.805,6.029,CST-1368DR,6081,8518,15125,0.128,551
2020-07-13T16:45:45,42.805,6.029,CST-1368DR,6081,8514,15118,0.130,551
2020-07-13T16:48:47,42.805,6.029,CST-1368DR,6081,8518,15124,0.128,551
2020-07-13T16:51:49,42.805,6.029,CST-1368DR,6081,8518,15125,0.128,551